Weather in Egindybulak

Kazakhstan     49°47′10″N   76°23′08″E
temp.,
°C
wind,
m/s
gust,
m/s
humid.,
%
clouds,
%
prec.,
mm/h
press.,
hPa
HPBL,
m
24 january, mon
mon2400:00−18e1199100 0.0 10379
03:00−19e1199100 0.0 10379
06:00−20e2210092 0.0 103910
09:00−19ese2299100 0.0 104014
12:00−14e2391100 0.0 103899
15:00−12ene2388100 0.0 1037150
18:00−17ene2298100 0.0 103910
21:00−19se11100100 0.0 104010
25 january, tue
tue2500:00−20sse2110073 0.0 10409
03:00−22s2210076 0.0 10409
06:00−22s2210069 0.0 104010
09:00−22s2210045 0.0 104011
12:00−13sse22905 0.0 103665
15:00−11s11915 0.0 103329
18:00−18ssw22985 0.0 10359
21:00−20sw22100100 0.0 103610
26 january, wed
wed2600:00−20sw229726 0.0 103612
03:00−20sw3293100 0.0 103514
06:00−16sw2284100 0.0 103317
09:00−13sw2279100 0.0 103243
12:00−10w51276100 0.0 1031496
15:00−10w61282100 0.0 1031516
18:00−11w51193100 0.1 1032418
21:00−13w4696100 0.2 1035165
27 january, thu
thu2700:00−19wsw339933 0.2 103730
03:00−22wsw2210069 0.0 103910
06:00−23sw2210037 0.0 104010
09:00−23ssw22995 0.0 104111
12:00−14sw12834 0.0 103867
15:00−12ssw11834 0.0 103643
18:00−19s22935 0.0 10389
21:00−21s33955 0.0 103915
28 january, fri
fri2800:00−22s33935 0.0 103913
03:00−21s33915 0.0 103816
06:00−21sse33872 0.0 103714
09:00−20sse33852 0.0 103618
12:00−12se23710 0.0 103268
15:00−9se23755 0.0 102960
18:00−16se22805 0.0 103112
21:00−19se33885 0.0 103220